Погода Демьянское

Погода Демьянское : погода сейчас, прогноз погоды и архив. Всё, что Вы хотите узнать о погоде Демьянское!

Поиск расширенной информации на нашем сайте:

Другие новости

Новости СМИ2

Главная страница сайта

Новости сайта

03.07.2017

Напоминаем, что на нашем специализированном сайте Метеоцентр.Азия вы можете получить высокодетализированные автоматические прогнозы погоды по пунктам России, СНГ и мира в авиационном формате (включающие направление и скорость ветра, видимость, явления погоды, количество и форму облачности, нижнюю и верхнюю границу облачности).

Рекомендуем: http://parkomat.biz/ Оборудования для ограничения въезда средства ограничения въезда.

Погода Демьянское - сегодня

Время (UTC), дата Ветер
(°,м/с) 
Видим.   Явления Облачность Т
(°С)
Тd
(°С)
f(%) Тe
(°С)
Pmin
(гПа)
dP
(гПа)
Po
(мм)
O2
(г/м3)
Тmin Tmax R s Состояние
почвы
09 17.08.17 тихо () {11}  10 км  гроза без осадков{ливн. осадки}  9/8 600 м кучево-дожд., верхняя 
[Cb cap|Ci fib]
+13 +12.6 97 +17  1021.7  761  290           
12 17.08.17 360 (С) 10 км  в посл. час гроза{ливн. осадки}  9/6 300 м кучево-дожд., средняя, верхняя 
[Cb cap|Ac trans|Ci ing]
+14 +11.9 87 +18  1021.8  0.1  761  289           
15 17.08.17 360 (С) 10 км    6/6 600 м кучево-дожд. 
[Cb cap]
+10.9 +10.9 100 +14  1022.6  0.7  762  293    +19.3     
18 17.08.17 тихо ()   10 км    8/8 1000 м 
[Sc]
+10.1 +10.1 100 +11  1023.4  0.8  762  294           
21 17.08.17 360 (С) 10 км    ясно 
+8.6 +8.6 100 +10  1023.9  0.5  763  296           
00 18.08.17 350 (С) 4000 м  дымка  ясно 
+7.6 +7.6 100 +9  1024.7  0.7  763  298           
03 18.08.17 020 (С) 10 км  {туман}  8/8 600 м средняя 
[St|Ac trans]
+12.2 +12.2 100 +17  1025.4  0.9  764  292  +7.3         
06 18.08.17 010 (С) 10 км  {туман}  3/3 600 м 
[Cu med, cong]
+16.6 +9.3 62 +17  1025.4  0.1  764  289           
09 18.08.17 010 (С) 10 км    4/4 600 м 
[Cu med, cong]
+17.9 +7.4 50 +19  1024.9  -0.5  764  288           
12 18.08.17 360 (С) 10 км    8/1 600 м средняя, верхняя 
[Cu hum|Ac trans|Ci fib]
+17.4 +4.8 43 +18  1024.1  -0.8  763  288           
15 18.08.17 тихо ()   10 км    10/6 1000 м верхняя 
[Sc diur, vesp|Ci]
+11 +9.4 90 +11  1024.1  -0.2  763  294    +18.3       
18 18.08.17 тихо ()   10 км    ясно 
+8 +7.9 99 +8  1024  -0.2  763  297           
21 18.08.17 тихо ()   4000 м  дымка  5/5 600 м 
[St]
+7.4 +7.4 100 +7  1023  -0.9  762  298           
00 19.08.17 тихо ()   10 км    6/3 1000 м верхняя 
[Sc|Ci fib]
+7 +7 100 +7  1022.2  -0.8  761  298           
03 19.08.17 200 (Ю) 10 км    5/4 1000 м верхняя 
[Sc|Ci fib]
+13.6 +10.6 82 +17  1021.5  -0.5  761  290  +6.2         
06 19.08.17 270 (З) 10 км    9/8 1000 м средняя 
[Sc|Ac trans]
+17.1 +10.3 64 +20  1020.5  -0.9  760  286           
09 19.08.17 250 (З) 10 км    9/8 600 м кучево-дожд., средняя, верхняя 
[Cb cap|Ac lent|Ci fib]
+18.5 +12 66 +24  1019.2  -1.3  759  284           
12 19.08.17 360 (С) 4000 м  гроза, ливневой дождь  10/10 300 м кучево-дожд. 
[Cb cap]
+17.1 +12.7 75 +23  1018.9  -0.4  759  285           
15 19.08.17 тихо ()   10 км  местами туман поземный{гроза, ливн. осадки}  8/3 600 м кучево-дожд., средняя, верхняя 
[Cb calv|Ac lent|Ci fib]
+13.7 +13.7 100 +20  1019.2  0.2  759  289    +20.9     
18 19.08.17 тихо ()   4000 м  дымка{гроза, ливн. осадки}  ясно 
+10 +10 100 +11  1019.9  0.7  760  294           
21 19.08.17 тихо ()   4000 м  дымка  ясно 
+8.1 +8.1 100 +8  1020.3  0.3  760  296           
00 20.08.17 тихо ()   4000 м  дымка  9/8 1000 м средняя, верхняя 
[Sc|Ac trans|Ci fib]
+7.7 +7.7 100 +8  1020.8  0.5  760  297           
03 20.08.17 тихо ()   10 км    9/6 1000 м средняя, верхняя 
[Sc|Ac trans|Ci fib]
+14.4 +14.4 100 +22  1020.8  0.2  761  288  +7.4         
06 20.08.17 тихо ()   10 км    8/8 1000 м 
[Sc]
+18.5 +15.4 82 +27  1020.4  -0.3  760  284           
09 20.08.17 170 (Ю) 10 км    4/4 600 м 
[Sc]
+22.3 +14.5 61 +30  1019.4  -0.9  760  280           
Время (UTC), дата Ветер
(°,м/с) 
Видим.   Явления Облачность Т
(°С)
Тd
(°С)
f(%) Тe
(°С)
Pmin
(гПа)
dP
(гПа)
Po
(мм)
O2
(г/м3)
Тmin Tmax R s Состояние
почвы

Для получения пояснительной информации подведите курсор к названию столбца.

ПОГОДА Демьянское - архив

Всё, что Вы хотите узнать о погоде Демьянское - удобно и подробно!

Выберите нужную дату (начиная с 1 января 2015* года) и нажмите кнопку "Найти".
Будут отображены архивные сводки погоды по пункту Демьянское, начиная с указанной даты.


Отображать данные в формате CSV (для использования в таблицах Excel)


Внимание! Наш архив погоды предназначен исключительно для личного некоммерческого использования в познавательных целях. Если Вам необходимы официальные справки о состоянии погоды (для производственных, юридических, коммерческих и т.п. целей), обращайтесь в органы Росгидромета.

*Примечание: данная дата относится к архиву по метеостанциям СССР (Россия, СНГ, Балтия).
Архив по метеостанциям Зарубежной Европы и Азии (кроме Китая) хранится 10 дней, по другим регионам земного шара (Китай, Африка, Америка, Австралия, Океания) - 1 день.

Демьянское - район местоположения метеостанции


Название, широта, долгота, высота метеостанции:
Демьянское 59.6°ш. 69.3°д. 57 м над ур. моря [Российская Федерация]

Дополнительная информация

В oтличие oт бoльшинства пoгoдных сайтoв мы публикуем пoдрoбную метеoинфoрмацию в детальнoм прoфессиoнальнoм фoрмате.

Характеристики температуры и влажнoсти вoздуха измеряются на высoте 2 м в тени вдали oт зданий и деревьев.
Скoрoсть ветра измеряется на высoте 10 м (на урoвне рoста челoвека скoрoсть ветра ниже в 1.5-2 раза). Если метеoстанция нахoдится в гoрoде или в лесу, тo скoрoсть ветра занижена на 2-4 м/с пo сравнению с oткрытым местoм. Скoрoсть ветра над акватoриями крупных рек и oзёр, а также на вершинах хoлмoв на 2-5 м/с выше, чем в oбычных услoвиях.
Атмoсфернoе давление в разных тoчках местнoсти мoжет значительнo oтличаться oт давления на метеoстанции, в зависимoсти oт услoвий рельефа (при пoдъёме на 10 м давление пoнижается примернo на 1 мм рт.ст.).